Location: La Oliva
(42.2466°N, 2.9955°E)
Time: 10:49:28
(UTC+00:00)

Cosmos 2263 Rocket - Pass Details

Date: 22 April 2021
Orbit: 824 x 848 km, 71.0° (Epoch: 11 May)

Event Time Altitude Azimuth Distance (km) Brightness Sun altitude
Exits shadow 20:34:42 11° 67° (ENE) 2,379 4.3 -19.8°
Drops below altitude 10° 20:34:57 10° 65° (ENE) 2,428 4.3 -19.8°
Sets 20:38:27 0° 43° (NE) 3,369 5.3 -20.3°
